Location: Newark
(25.4297°S, 49.2719°W)
Time: 13:42:23
(UTC+00:00)

Tiros 1 - Pass Details

Date: 14 November 2019
Orbit: 630 x 664 km, 48.4° (Epoch: 11 December)

Event Time Altitude Azimuth Distance (km) Brightness Sun altitude
Exits shadow 05:54:47 50° 122° (ESE) 844 8.0 -29.4°
Drops below altitude 10° 05:58:25 10° 132° (SE) 2,093 10.7 -28.7°
Sets 06:00:47 0° 133° (SE) 3,008 11.8 -28.3°
